Simultaneous Nadir Overpasses (SNOs) Predictions

Prediction of SNOs between FY3D and AQUA Satellite Orbit:

Table of predicted SNOs for the next 14.0 days since TLE Epoch: 2/15/2020
Index Date (FY3D) Time (FY3D) Lat,Lon (FY3D) SZA (FY3D ) Date (AQUA) Time (AQUA) Lat,Lon (AQUA) SZA (AQUA ) Distance(km) Time Diff (sec)
1 02/16/2020 03:36:51 -66.80, 169.03 60.23 02/16/2020 03:37:47 -66.81, 169.07 60.31 1.78 56
2 02/16/2020 04:26:14 71.05, -17.78 115.43 02/16/2020 04:25:55 71.04, -17.83 115.47 2.26 19
3 02/18/2020 19:53:20 -66.52, -75.38 60.85 02/18/2020 19:54:22 -66.52, -75.35 60.94 1.39 62
4 02/18/2020 20:42:43 70.77, 97.66 114.80 02/18/2020 20:42:30 70.76, 97.61 114.84 2.04 13
5 02/21/2020 12:09:47 -66.40, 40.39 61.67 02/21/2020 12:10:55 -66.40, 40.40 61.75 0.52 68
6 02/21/2020 12:59:11 70.60,-146.72 114.04 02/21/2020 12:59:04 70.59,-146.77 114.07 2.32 7
7 02/21/2020 13:42:36 -77.88, 131.29 90.33 02/21/2020 13:41:23 -78.44, 133.93 90.02 86.72 73
8 02/24/2020 04:26:17 -66.11, 155.98 62.35 02/24/2020 04:27:31 -66.10, 155.97 62.42 1.39 74
9 02/24/2020 05:15:55 69.58, -32.38 114.13 02/24/2020 05:15:53 69.58, -32.33 114.12 2.02 2
10 02/24/2020 06:03:19 -79.06, 163.84 77.02 02/24/2020 06:02:05 -79.30, 162.92 76.87 32.47 74
11 02/26/2020 20:46:52 -52.08, -98.04 49.88 02/26/2020 20:48:05 -52.01, -97.49 50.18 38.73 73
12 02/26/2020 21:32:18 69.61, 83.58 113.11 02/26/2020 21:32:22 69.62, 83.59 113.10 0.74 4




NCC Satellite Simultaneous Nadir Overpasses (SNOs) Prediction Service
